CW1767 Weather Reports


Display with metric or nautical units.
time (UTC)temp
F
wind
direction
speed
MPH
gust
MPH
rain 1hr
in
rain 24hr
in
rain mn
in
humidity
%
barometer
mb
20260508181551 69 198 0.0 4.0 0.00 0.13 0.00 36 1014.2
20260508180059 69 154 1.0 5.0 0.00 0.13 0.00 35 1014.3
20260508174601 69 180 0.0 2.0 0.00 0.13 0.00 41 1014.3
20260508173046 69 215 1.0 3.0 0.00 0.13 0.00 36 1014.3
20260508171544 69 216 0.0 4.0 0.00 0.13 0.00 34 1014.4
20260508170046 68 202 1.0 3.0 0.00 0.13 0.00 35 1014.5
20260508164549 69 267 1.0 3.0 0.00 0.13 0.00 35 1014.6
20260508163039 67 177 0.0 3.0 0.00 0.13 0.00 35 1014.7
20260508161538 67 163 0.0 3.0 0.00 0.13 0.00 38 1014.8
20260508160038 66 205 2.0 4.0 0.00 0.13 0.00 38 1015.0
20260508154536 65 196 0.0 4.0 0.00 0.13 0.00 37 1015.0
20260508153042 62 173 0.0 2.0 0.00 0.13 0.00 43 1015.1
20260508151602 61 190 0.0 3.0 0.00 0.13 0.00 44 1015.1
20260508150056 60 221 0.0 1.0 0.00 0.13 0.00 44 1015.3
20260508144553 59 218 0.0 1.0 0.00 0.13 0.00 51 1015.3
20260508143055 58 280 0.0 1.0 0.00 0.13 0.00 51 1015.4
20260508141600 58 240 0.0 2.0 0.00 0.13 0.00 53 1015.5
20260508140045 57 327 0.0 2.0 0.00 0.13 0.00 57 1015.5
20260508134543 56 259 0.0 2.0 0.00 0.13 0.00 60 1015.5
20260508133040 56 337 1.0 2.0 0.00 0.13 0.00 58 1015.4
20260508131536 55 261 0.0 2.0 0.00 0.13 0.00 67 1015.3
20260508130039 54 242 0.0 2.0 0.00 0.13 0.00 67 1015.3
20260508124535 54 255 0.0 1.0 0.00 0.13 0.00 74 1015.1
20260508123028 53 217 0.0 1.0 0.00 0.13 0.00 76 1015.1
20260508121524 52 198 0.0 1.0 0.00 0.13 0.00 81 1014.9
20260508120020 50 188 0.0 0.0 0.00 0.13 0.00 85 1014.9
20260508114516 48 186 0.0 0.0 0.00 0.13 0.00 91 1014.9
20260508113015 47 186 0.0 0.0 0.00 0.13 0.00 90 1014.8
20260508111510 47 186 0.0 0.0 0.00 0.13 0.00 91 1014.6
20260508110009 47 186 0.0 0.0 0.00 0.13 0.00 91 1014.4
20260508104506 47 186 0.0 0.0 0.00 0.13 0.00 91 1014.1
20260508103010 46 186 0.0 1.0 0.00 0.13 0.00 92 1013.9
20260508101504 46 184 0.0 0.0 0.00 0.13 0.00 93 1013.8
20260508100001 46 183 0.0 0.0 0.00 0.13 0.00 93 1013.5
20260508094501 46 184 0.0 0.0 0.00 0.13 0.00 93 1013.4
20260508093106 47 183 0.0 0.0 0.00 0.13 0.00 93 1013.2
20260508091558 47 184 0.0 0.0 0.00 0.13 0.00 94 1012.9
20260508090108 47 183 0.0 0.0 0.00 0.13 0.00 93 1012.9
20260508084558 47 183 0.0 0.0 0.00 0.14 0.00 93 1012.7
20260508083057 47 183 0.0 0.0 0.00 0.14 0.00 93 1012.5
20260508081558 47 183 0.0 0.0 0.00 0.14 0.00 93 1012.4
20260508080050 47 183 0.0 0.0 0.00 0.14 0.00 94 1012.0
20260508074551 47 183 0.0 0.0 0.00 0.14 0.00 94 1011.9
20260508073046 46 183 0.0 0.0 0.00 0.14 0.00 93 1011.7
20260508071545 46 183 0.0 0.0 0.00 0.14 0.00 93 1011.4
20260508070043 45 183 0.0 0.0 0.00 0.14 0.00 93 1011.2
20260508064543 45 183 0.0 0.0 0.00 0.17 0.00 93 1011.0
20260508063057 45 183 0.0 0.0 0.00 0.17 0.00 92 1010.9
20260508061540 45 183 0.0 0.0 0.00 0.17 0.00 92 1011.0
20260508060040 45 183 0.0 0.0 0.00 0.17 0.00 92 1010.9
20260508054540 45 183 0.0 0.0 0.00 0.32 0.00 92 1010.9
20260508053039 46 183 0.0 0.0 0.00 0.32 0.00 92 1010.9
20260508051540 46 183 0.0 0.0 0.00 0.32 0.00 92 1011.0
20260508050038 46 183 0.0 0.0 0.00 0.32 0.00 92 1011.1
20260508044535 46 183 0.0 0.0 0.00 0.32 0.00 92 1011.0
20260508043051 46 183 0.0 0.0 0.00 0.32 0.00 92 1010.9
20260508041536 47 183 0.0 0.0 0.00 0.32 0.00 92 1010.9
20260508040036 47 183 0.0 0.0 0.00 0.32 0.32 92 1010.9
20260508034530 47 183 0.0 0.0 0.00 0.32 0.32 91 1010.7
20260508033027 48 183 0.0 0.0 0.00 0.32 0.32 91 1010.6
20260508031526 48 183 0.0 0.0 0.00 0.32 0.32 91 1010.6
20260508030027 48 183 0.0 0.0 0.00 0.32 0.32 91 1010.5
20260508024523 49 183 0.0 0.0 0.00 0.32 0.32 91 1010.6
20260508023022 49 183 0.0 0.0 0.00 0.32 0.32 91 1010.8
20260508021519 50 183 0.0 0.0 0.00 0.32 0.32 91 1010.7
20260508020027 50 183 0.0 0.0 0.00 0.32 0.32 91 1010.7
20260508014520 50 183 0.0 0.0 0.00 0.32 0.32 91 1010.5
20260508013016 50 183 0.0 0.0 0.00 0.32 0.32 91 1010.3
20260508011516 51 183 0.0 0.0 0.00 0.32 0.32 91 1010.2
20260508010016 51 183 0.0 0.0 0.00 0.32 0.32 91 1009.9
20260508004514 51 183 0.0 0.0 0.00 0.32 0.32 90 1009.8
20260508003012 51 183 0.0 0.0 0.00 0.32 0.32 90 1009.6
20260508001528 52 183 0.0 0.0 0.00 0.32 0.32 90 1009.5
20260508000011 52 183 0.0 0.0 0.00 0.32 0.32 90 1009.3
20260507234514 52 183 0.0 0.0 0.00 0.32 0.32 90 1009.3
20260507233015 52 183 0.0 0.0 0.00 0.32 0.32 90 1009.1
20260507231509 52 183 0.0 0.0 0.00 0.32 0.32 90 1009.1
20260507230009 52 183 0.0 0.0 0.00 0.32 0.32 90 1009.0
20260507224509 52 183 0.0 0.0 0.02 0.32 0.32 90 1009.0
20260507223009 52 183 0.0 0.0 0.02 0.32 0.32 90 1009.3
20260507221507 52 183 0.0 0.0 0.04 0.32 0.32 89 1009.2
20260507220007 52 183 0.0 0.0 0.08 0.32 0.32 89 1008.8
20260507214505 52 183 0.0 0.0 0.07 0.30 0.30 89 1009.5
20260507213003 52 183 0.0 0.0 0.08 0.30 0.30 88 1009.1
20260507211502 53 183 0.0 0.0 0.09 0.28 0.28 87 1009.3
20260507210001 53 183 0.0 1.0 0.05 0.24 0.24 85 1009.8
20260507204501 54 183 0.0 1.0 0.04 0.23 0.23 84 1008.9
20260507203003 56 182 0.0 1.0 0.03 0.22 0.22 80 1009.3
20260507201601 57 123 0.0 0.0 0.00 0.19 0.19 78 1009.1
20260507200110 57 123 0.0 0.0 0.00 0.19 0.19 77 1009.0
20260507194600 57 123 0.0 0.0 0.00 0.19 0.19 76 1008.8
20260507193059 57 123 0.0 0.0 0.00 0.19 0.19 76 1009.1
20260507191659 58 123 0.0 0.0 0.00 0.19 0.19 75 1008.9
20260507190058 58 123 0.0 0.0 0.00 0.19 0.19 75 1009.1
20260507184605 58 123 0.0 1.0 0.00 0.19 0.19 75 1009.2
20260507183057 57 350 0.0 0.0 0.00 0.19 0.19 74 1009.5